{"data":{"norad_id":82739,"intl_designator":"","name":"UNKNOWN","alt_names":[],"object_type":"UNKNOWN","status":"UNKNOWN","operator":null,"country":null,"launch_date":null,"launch_site_code":null,"launch_vehicle":null,"mission":null,"orbit_class":"UNKNOWN","rcs_meters":null,"size_class":null,"mass_kg":null,"dimensions":null,"purposes":[],"wikipedia_slug":null,"has_3d_model":false,"image_url":null,"decayed_at":null,"tle_current":{"epoch":"2026-05-23T09:23:31.877088Z","epoch_age_seconds":204286,"freshness":"STALE","line1":"1 82739U          26143.39134117  .00001224  00000+0  10359-2 0  9992","line2":"2 82739  99.1022 299.3330 0170045 219.7572 168.7537 13.83108146628450","mean_motion":13.83108146,"eccentricity":0.0170045,"inclination_deg":99.1022,"raan_deg":299.333,"arg_perigee_deg":219.7572,"mean_anomaly_deg":168.7537,"bstar":0.0010359,"rev_number":62845,"period_min":104.11333373782,"perigee_km":828.22285113711,"apogee_km":1077.5435165698,"semimajor_km":7331.0201838534,"source":"CELESTRAK","updated_at":"2026-05-25T13:38:11.194679Z"}}}